Regional Weather Roundup
Issued by NWS Albany, NY

Home | Current Version | Previous Version | Graphics & Text | Print | Product List | Glossary Off
Versions: 1 2 3 4 5 6 7 8 9 10 11 12 13 14 15 16 17 18 19 20 21 22 23 24 25 26 27 28

000
ASUS41 KALY 230010
RWRALY

NEW YORK STATE HOURLY WEATHER ROUNDUP
NATIONAL WEATHER SERVICE ALBANY NY
800 PM EDT SAT JUL 22 2017

NOTE: "FAIR" INDICATES FEW OR NO CLOUDS BELOW 12,000 FEET WITH NO
SIGNIFICANT WEATHER AND/OR NO OBSTRUCTIONS TO VISIBILITY.

NYZ032-033-038>043-046>054-057>066-NYZ062>081-082-084-230100-
EAST


CITY           SKY/WX    TMP DP  RH WIND       PRES   REMARKS
ALBANY         MOCLDY    73  65  75 CALM      29.80F
GLENS FALLS    FAIR      71  62  73 S7        29.79S
POUGHKEEPSIE   FAIR      75  65  70 NW3       29.78R
NEWBURGH       MOCLDY    77  66  69 E9        29.80S
MONTGOMERY     FAIR      77  71  82 NE7       29.78S
ISLIP          LGT RAIN  80  67  64 SE6       29.77F
NEW YORK CITY  CLOUDY    83  66  56 SE9       29.76S
CENTRAL PARK   FAIR      80  66  62 VRB5      29.80S
$$

NYZ005>009-017-018-044>046-055-056-230100-
CENTRAL


CITY           SKY/WX    TMP DP  RH WIND       PRES   REMARKS
FULTON         FAIR      71  66  84 CALM      29.80S
SYRACUSE       CLOUDY    71  66  84 NE5       29.79S
ROME           FAIR      72  67  84 CALM      29.81S
ELMIRA         MOCLDY    76  68  76 N6        29.79R
BINGHAMTON     CLOUDY    70  63  78 E6        29.83R
$$

NYZ026>034-041>043-087-230100-
NORTH


CITY           SKY/WX    TMP DP  RH WIND       PRES   REMARKS
WATERTOWN      FAIR      73  67  81 CALM      29.79S
FORT DRUM      NOT AVBL
OGDENSBURG     FAIR      75  63  64 E5        29.81S
MASSENA        FAIR      73  63  70 CALM      29.82S
SARANAC LAKE   FAIR      69  59  70 N3        29.85R
PLATTSBURGH    FAIR      72  58  61 CALM      29.81S
$$

NYZ001>004-010>016-019>021-085-230100-
WEST


CITY           SKY/WX    TMP DP  RH WIND       PRES   REMARKS
NIAGARA FALLS  CLOUDY    74  64  71 NE7       29.79R
BUFFALO        CLOUDY    75  64  68 NE6       29.80R
DUNKIRK        CLOUDY    74  68  81 E5        29.78S
JAMESTOWN      CLOUDY    68  63  83 SE3       29.84R
WELLSVILLE     MOCLDY    72  65  78 E7        29.86R
ROCHESTER      CLOUDY    74  67  78 E7        29.80R
PENN YAN       CLOUDY    72  65  78 CALM      29.81S
$$

             KEY
       WCI = WIND CHILL INDEX
       VSB = VISIBILITY
       HX  = HEAT INDEX
$$




USA.gov is the U.S. government's official web portal to all federal, state and local government web resources and services.